Location: Altenst�hlen
(53.5567°N, 8.9425°E)
Time: 13:15:53
(UTC+00:00)

EO 1 Delta rocket - Pass Details

Date: 23 October 2019
Orbit: 698 x 1791 km, 95.4° (Epoch: 13 November)

Event Time Altitude Azimuth Distance (km) Brightness Sun altitude
Rises 16:49:48 0° 142° (SE) 3,088 6.9 -6.5°
Reaches altitude 10° 16:52:03 10° 135° (SE) 2,208 6.1 -6.8°
Maximum altitude 16:56:27 39° 66° (ENE) 1,159 4.5 -7.4°
Drops below altitude 10° 17:01:34 10° 360° (N) 2,571 6.6 -8.2°
Sets 17:04:21 0° 353° (N) 3,665 7.5 -8.6°
